Other Public Products
Issued by NWS Charleston, SC

Current Version | Previous Version | Graphics & Text | Print | Product List | Glossary On
Versions: 1 2 3 4 5 6 7 8 9 10 11 12 13 14 15 16 17 18 19 20 21 22 23 24 25 26 27 28 29 30 31 32 33 34 35 36 37 38 39 40 41 42 43 44 45 46 47 48 49 50
000
FPUS82 KCHS 250812
OPUCHS

TEST...KCHS/KSAV Gateway Observations...TEST
National Weather Service Charleston SC
400 AM EDT TUE JUL 25 2017

NOTE: "fair" indicates few or no clouds below 12,000 feet with no
significant weather and/or obstructions to visibility.

SCZ050-WAZ558-NCZ071-TXZ119-213-PAZ071-DCZ001-FLZ074-172-MI076-
NYZ176-178-MAZ016-IL014-TNZ027-NJZ106-GAZ044-MD014-250900-

...Gateway Observations for Charleston International...

CITY           SKY/WX    TMP DP  RH WIND       PRES   REMARKS
Chas Airport   MOCLDY    76  74  93 S3        30.01R
Seattle        CLEAR     68  53  58 NE9       30.00R
Charlotte      MOCLDY    76  73  91 SW3       30.01S
Dallas DFW     PTCLDY    79  76  90 SE6       30.00S
Dallas Love    MOCLDY    80  73  79 SE7       30.01S
Philladelphia  CLOUDY    66  65  96 NE6       29.96R FOG
Wash National  CLOUDY    75  61  61 N10       29.98R
Baltimore      MOCLDY    69  65  86 CALM      29.98R
Miami          PTCLDY    84  77  79 SE3       30.07F HX  94
Detroit        PTCLDY    58  52  80 N3        30.15R
Newark         CLOUDY    63  59  87 NE8       29.97S
Laguardia      CLOUDY    63  60  90 E10       29.97F
J F K          CLOUDY    64  60  87 NE9       29.98S
Boston Logan   CLOUDY    58  56  93 N10       30.00R
Ft. Lauderdale MOCLDY    83  78  85 SE5       30.07S HX  93
Chicago O`Hare PTCLDY    65  59  81 N3        30.13S
Chicago Midway PTCLDY    69  62  78 E3        30.13R
Houston Bush   CLOUDY    81  74  79 S3        30.04F
Houston Hobby  MOCLDY    80  74  81 S5        30.04S
Nashville      PTCLDY    78  74  87 CALM      30.03S
Atlanta        MOCLDY    73  71  93 W5        30.05S

$$

GAZ044-118-TXZ119-213-NCZ071-DCZ001-MDZ014-506-PAZ021-071-NJZ106-
NYZ176-178-MAZ106-OHZ011-021-055-MIZ076-KYZ091-ILZ014-INZ047-
MNZ060-ONZ431-250900-

...Gateway Observations for Savannah International...

CITY           SKY/WX    TMP DP  RH WIND       PRES   REMARKS
Savannah Arpt  PTCLDY   N/A N/A N/A SW6       30.02R
Atlanta        MOCLDY    73  71  93 W5        30.05S
Charlotte      MOCLDY    76  73  91 SW3       30.01S
Dallas DFW     PTCLDY    79  76  90 SE6       30.00S
Houston Bush   CLOUDY    81  74  79 S3        30.04F
Wash National  CLOUDY    75  61  61 N10       29.98R
Wash Dulles    CLOUDY    71  58  63 N9        30.00R
Baltimore      MOCLDY    69  65  86 CALM      29.98R
Philadelphia   CLOUDY    66  65  96 NE6       29.96R FOG
Newark         CLOUDY    63  59  87 NE8       29.97S
Laguardia      CLOUDY    63  60  90 E10       29.97F
J F K          CLOUDY    64  60  87 NE9       29.98S
Boston         CLOUDY    58  56  93 N10       30.00R
Pittsburg      CLOUDY    64  56  75 NW9       30.09R
Akron          CLOUDY    64  54  69 N9        30.10F
Cleveland      CLOUDY    67  57  70 N10       30.12S
Cincinnati     CLEAR     66  60  81 E8        30.11S
Columbus       CLEAR     59  58  97 NE3       30.11S
Detroit        PTCLDY    58  52  80 N3        30.15R
Chicago O`Hare PTCLDY    65  59  81 N3        30.13S
Minneapolis    CLOUDY    68  59  73 S13G20    30.04F
Indianapolis   CLEAR     65  57  75 E7        30.12R
Toronto Canada CLOUDY    61  54  77 N13       30.06R

$$




USA.gov is the U.S. government's official web portal to all federal, state and local government web resources and services.